TimeEDT,TemperatureF,Dew PointF,Humidity,Sea Level PressureIn,VisibilityMPH,Wind Direction,Wind SpeedMPH,Gust SpeedMPH,PrecipitationIn,Events,Conditions,WindDirDegrees,DateUTC
12:53 AM,57.0,46.9,69,30.29,10.0,East,11.5,-,N/A,,Overcast,80,2012-10-14 04:53:00
1:53 AM,57.0,46.9,69,30.29,10.0,East,8.1,-,N/A,,Overcast,90,2012-10-14 05:53:00
2:01 AM,57.2,46.4,67,30.31,10.0,East,6.9,-,N/A,,Overcast,80,2012-10-14 06:01:00
2:53 AM,57.0,48.0,72,30.27,10.0,East,6.9,-,N/A,,Overcast,90,2012-10-14 06:53:00
3:53 AM,57.0,48.9,74,30.26,10.0,East,6.9,-,N/A,,Overcast,90,2012-10-14 07:53:00
4:33 AM,57.2,48.2,72,30.27,10.0,East,8.1,-,N/A,,Overcast,80,2012-10-14 08:33:00
4:53 AM,57.0,48.9,74,30.25,10.0,East,6.9,-,N/A,,Overcast,90,2012-10-14 08:53:00
5:53 AM,57.0,48.9,74,30.24,10.0,ENE,5.8,-,N/A,,Overcast,70,2012-10-14 09:53:00
6:38 AM,57.2,50.0,77,30.26,10.0,East,6.9,-,N/A,,Overcast,80,2012-10-14 10:38:00
6:53 AM,57.0,50.0,77,30.25,10.0,East,8.1,-,N/A,,Overcast,90,2012-10-14 10:53:00
7:04 AM,57.2,50.0,77,30.26,10.0,East,8.1,-,N/A,,Overcast,90,2012-10-14 11:04:00
7:53 AM,57.0,50.0,77,30.25,10.0,East,4.6,-,N/A,,Overcast,80,2012-10-14 11:53:00
8:41 AM,57.2,50.0,77,30.27,10.0,East,6.9,-,N/A,,Overcast,90,2012-10-14 12:41:00
8:53 AM,57.9,50.0,75,30.25,10.0,East,5.8,-,N/A,,Overcast,80,2012-10-14 12:53:00
9:53 AM,59.0,51.1,75,30.25,10.0,East,6.9,-,N/A,,Overcast,80,2012-10-14 13:53:00
10:53 AM,61.0,52.0,72,30.26,10.0,East,6.9,-,N/A,,Overcast,90,2012-10-14 14:53:00
11:53 AM,63.0,54.0,72,30.26,10.0,East,4.6,-,N/A,,Overcast,100,2012-10-14 15:53:00
12:00 PM,64.4,55.4,73,30.28,10.0,Variable,4.6,-,N/A,,Overcast,0,2012-10-14 16:00:00
12:53 PM,64.9,55.9,73,30.24,10.0,ESE,3.5,-,N/A,,Overcast,110,2012-10-14 16:53:00
1:42 PM,68.0,57.2,68,30.23,10.0,SSW,4.6,-,N/A,,Overcast,200,2012-10-14 17:42:00
1:53 PM,68.0,57.9,70,30.20,10.0,South,4.6,-,N/A,,Overcast,180,2012-10-14 17:53:00
2:53 PM,69.1,60.1,73,30.17,10.0,Calm,Calm,-,N/A,,Overcast,0,2012-10-14 18:53:00
3:09 PM,69.8,60.8,73,30.18,10.0,Calm,Calm,-,N/A,,Overcast,0,2012-10-14 19:09:00
4:53 PM,71.1,61.0,70,30.10,10.0,SE,4.6,-,N/A,,Mostly Cloudy,140,2012-10-14 20:53:00
5:53 PM,70.0,62.1,76,30.09,10.0,ESE,3.5,-,N/A,,Partly Cloudy,120,2012-10-14 21:53:00
6:43 PM,68.0,62.6,83,30.10,10.0,East,5.8,-,N/A,,Overcast,90,2012-10-14 22:43:00
6:53 PM,68.0,62.1,81,30.08,10.0,East,4.6,-,N/A,,Overcast,90,2012-10-14 22:53:00
7:13 PM,66.2,62.6,88,30.09,10.0,East,4.6,-,N/A,,Scattered Clouds,100,2012-10-14 23:13:00
7:53 PM,66.0,61.0,84,30.05,10.0,ESE,6.9,-,N/A,,Clear,110,2012-10-14 23:53:00
8:53 PM,64.9,61.0,87,30.06,10.0,ESE,5.8,-,N/A,,Clear,110,2012-10-15 00:53:00
9:53 PM,64.9,61.0,87,30.06,10.0,East,4.6,-,N/A,,Clear,80,2012-10-15 01:53:00
10:53 PM,64.0,60.1,87,30.06,10.0,East,3.5,-,N/A,,Mostly Cloudy,80,2012-10-15 02:53:00
11:53 PM,63.0,60.1,90,30.04,10.0,East,5.8,-,N/A,,Overcast,90,2012-10-15 03:53:00